Regional Weather Roundup
Issued by NWS

Home | Current Version | Previous Version | Text Only | Print | Product List | Glossary On
Versions: 1 2 3 4 5 6 7 8 9 10 11 12 13 14 15 16 17 18 19 20 21 22 23 24 25 26 27 28 29 30 31 32 33 34 35 36 37 38 39 40 41 42 43 44 45 46 47 48 49 50
000
ASCA44 KEWX 261120
RWRMX

LATIN AMERICA AND CARIBBEAN REGIONAL WEATHER ROUNDUP
NATIONAL WEATHER SERVICE AUSTIN/SAN ANTONIO TX
600 AM CDT THU MAY 26 2016

NOTE: "FAIR" INDICATED FEW OR NO CLOUDS BELOW 12,000 FEET WITH NO
SIGNIFICANT WEATHER AND/OR OBSTRUCTIONS TO VISIBILITY.

BAJA CALIFORNIA

CITY           SKY/WX    TMP DP  RH WIND       PRES   REMARKS
S.J. DEL CABO    N/A    N/A N/A N/A MISG        N/A
TIJUANA        CLOUDY    57  48  72 CALM      30.09F

NORTHWESTERN MEXICO

CITY           SKY/WX    TMP DP  RH WIND       PRES   REMARKS
HERMOSILLO     CLEAR     70  36  28 CALM      29.94
OBREGON        PTCLDY    64  54  68 CALM      29.87

NORTHEASTERN MEXICO

CITY           SKY/WX    TMP DP  RH WIND       PRES   REMARKS
CHIHUAHUA      PTCLDY    70  39  32 S14       30.07
MONCLOVA         N/A    N/A N/A N/A MISG        N/A
MONTERREY      MOCLDY    72  68  88 CALM      29.97F
NUEVO LAREDO   CLEAR     75  72  88 CALM      29.91
REYNOSA        CLOUDY    77  73  88 SE3       29.94  FOG
SALTILLO       MOCLDY    63  57  82 S6        30.22
CD. VICTORIA     N/A    N/A N/A N/A MISG        N/A

WESTERN MEXICO

CITY           SKY/WX    TMP DP  RH WIND       PRES   REMARKS
AGUASCALIENTES PTCLDY    64  39  39 S5        30.26
COLIMA         MOCLDY    73  52  46 CALM      30.02
DEL BAJIO      MOCLDY    68  54  60 SE7       30.31R
GUADALAJARA    CLEAR     66  43  42 W3        30.19
MAZATLAN       MOCLDY    73  72  94 CALM      29.87S
P. VALLARTA    CLEAR     70  66  88 CALM      29.87F
URUAPAN          N/A    N/A N/A N/A MISG        N/A
ZACATECAS      CLEAR     57  37  47 CALM      30.33R

CENTRAL MEXICO

CITY           SKY/WX    TMP DP  RH WIND       PRES   REMARKS
CUERNAVACA       N/A    N/A N/A N/A MISG        N/A
MEXICO CITY    PTCLDY    64  50  59 S5        30.35R
MORELIA        MOCLDY    64  59  82 CALM      30.29
POZA RICA        N/A    N/A N/A N/A MISG        N/A
S. LUIS POTOSI PTCLDY    64  52  63 E6        30.25R
TOLUCA         CLEAR     52  48  87 CALM      30.45R

SOUTHERN MEXICO

CITY           SKY/WX    TMP DP  RH WIND       PRES   REMARKS
ACAPULCO       MOCLDY    82  75  78 W5        29.86S
B. DE HUATULCO   N/A    N/A N/A N/A MISG        N/A
OAXACA         MOCLDY    61  54  77 NE2       30.25
P. ESCONDIDO   CLEAR     82  77  83 N3        29.96  HX  91
VERACRUZ       MOCLDY    82  79  89 E7        29.90  HX  93

YUCATAN PENINSULA

CITY           SKY/WX    TMP DP  RH WIND       PRES   REMARKS
CAMPECHE       PTCLDY    82  75  78 CALM      29.90
CANCUN         PTCLDY    81  77  89 E7        29.99R
CHETUMAL       PTCLDY    82  77  83 E9        29.95  HX  91
CD. DEL CARMEN PTCLDY    86  73  66 SE17      29.91  HX  93
COZUMEL        PTCLDY    72  72 100 CALM      29.98S
MERIDA         CLEAR     81  75  83 E7        29.96S
MINATITLAN     PTCLDY    82  79  89 CALM      29.83  HX  93
TAPACHULA      PTCLDY    81  79  94 CALM      29.83R
TUX. GUTIERREZ CLEAR     75  68  78 CALM      29.95
VILLAHERMOSA   PTCLDY    81  79  94 E8        29.89R

CENTRAL AMERICA

CITY           SKY/WX    TMP DP  RH WIND       PRES   REMARKS
BELIZE CITY    PTCLDY    81  77  89 CALM      29.95
MANAGUA        PTSUNNY   82  73  74 E7        29.83S

CARIBBEAN

CITY           SKY/WX    TMP DP  RH WIND       PRES   REMARKS
ARUBA          PTCLDY    82  73  74 E15       29.89S
CURACAO        MOSUNNY   81  72  74 E10       29.92R
KINGSTON       MOCLDY    81  72  74 N10       29.94R
NASSAU         PTCLDY    81  64  57 N7        30.08R
SAN JUAN       PTSUNNY   79  72  78 SE3       30.01S
SANTO DOMINGO  PTSUNNY   72  72 100 CALM      29.97S
ST. CROIX      PTSUNNY   77  72  83 N5        30.01
ST. KITTS      MOSUNNY   77  73  88 N5        29.97S
ST. MAARTEN    MOSUNNY   77  72  83 NE6       30.00S
ST. THOMAS     SUNNY     81  72  74 E6        30.01

$$





USA.gov is the U.S. government's official web portal to all federal, state and local government web resources and services.